Theta_e
319 325 327 329 334 335 339 339 341 345 345 345 343 338 345 348 352 354 345 344 348 348 337 335 334 332 332 337 342 343 343 341 335 327 320 320 322 330 328 324 323 323 323 325 327 328 329 335 339
322 325 326 330 336 337 339 339 339 343 343 343 344 340 344 350 346 347 344 345 349 347 336 336 334 330 329 334 340 341 340 337 331 325 319 320 326 327 324 323 323 323 323 323 324 326 327 332 336
320 325 327 333 335 336 338 338 339 341 338 340 343 341 346 351 344 344 345 347 350 346 341 337 334 328 326 327 328 330 332 332 327 322 319 322 325 324 324 324 323 323 323 323 323 323 324 326 326
324 325 327 333 335 335 335 338 337 340 337 339 345 350 358 348 344 345 346 348 348 344 344 337 333 329 329 327 324 322 322 324 324 319 320 323 324 324 325 324 323 322 323 323 323 323 322 322 323
323 326 332 334 334 334 335 336 338 338 339 340 345 350 355 357 351 345 347 347 345 344 345 336 333 331 330 328 324 320 321 322 321 319 321 323 324 324 325 325 323 321 321 322 322 322 322 322 322
323 325 332 335 335 334 335 334 337 337 338 340 345 350 356 355 348 346 347 346 344 345 346 335 334 333 333 332 327 322 323 321 319 321 322 323 324 324 324 325 324 322 321 321 321 321 321 321 321
323 326 329 335 336 334 334 334 335 336 338 340 345 352 356 353 348 348 347 346 344 346 344 335 335 335 335 335 334 329 323 321 319 321 322 323 324 324 323 324 325 323 322 322 321 320 320 320 319
320 325 326 330 336 336 334 334 333 335 338 346 346 355 356 354 349 349 347 345 345 346 345 343 336 335 336 336 336 336 333 327 323 321 320 320 321 321 322 324 325 325 322 322 323 322 321 321 321
319 324 325 326 332 337 333 335 333 334 336 343 346 352 351 355 350 349 348 345 345 345 346 344 344 343 343 342 336 336 336 336 333 329 326 324 324 330 323 324 324 323 322 321 322 322 323 322 322
321 322 324 326 327 333 335 334 334 334 335 343 351 355 356 355 351 350 349 347 345 345 345 345 345 345 344 344 341 338 337 337 336 336 333 332 341 342 341 341 331 322 321 322 322 322 322 322 331
320 322 324 325 325 327 333 334 333 334 335 339 350 356 357 356 353 351 350 348 346 345 345 346 347 348 346 345 347 345 345 345 345 347 349 341 346 345 341 338 341 334 330 326 335 336 337 338 336
320 321 323 324 324 327 332 333 334 332 334 337 347 356 356 357 354 352 351 349 347 346 346 349 350 351 350 348 349 347 347 347 348 349 350 349 345 346 342 342 339 339 337 337 337 335 335 337 339
321 321 321 323 324 327 330 333 333 332 333 341 351 355 356 356 355 353 352 349 348 348 348 350 351 353 353 350 348 347 347 348 348 350 350 350 348 346 345 343 342 339 337 335 336 336 338 341 343
320 320 321 321 324 326 328 330 331 332 333 340 346 355 356 357 356 354 353 349 348 348 348 349 353 355 353 352 350 349 349 349 349 349 349 350 345 345 344 345 345 343 342 342 340 339 339 341 344
320 321 321 323 325 326 326 329 332 332 333 339 350 353 355 356 355 353 351 350 350 349 349 351 353 354 354 353 352 351 350 348 348 347 348 347 342 343 340 348 349 349 348 347 346 344 345 346 346
321 322 321 323 325 325 326 329 331 332 334 340 348 353 353 353 352 351 350 350 350 349 352 353 351 353 352 347 346 348 348 346 344 344 344 347 347 346 350 351 351 350 351 350 350 348 348 348 345
321 322 321 324 324 326 327 328 330 334 337 341 346 352 353 353 352 351 350 350 351 351 353 354 352 353 351 347 344 343 344 340 343 344 346 352 353 353 351 352 352 352 351 351 350 349 350 347 346
321 321 322 324 324 325 327 328 332 333 341 343 345 350 352 352 352 352 352 354 356 358 357 354 352 352 350 350 346 347 346 347 348 348 350 353 353 352 352 353 353 352 351 351 350 350 350 348 347
322 321 322 323 325 324 326 327 331 332 340 343 347 349 352 352 348 344 344 345 352 356 357 355 353 352 346 350 348 348 349 351 350 352 351 346 348 341 337 341 352 350 349 348 348 347 348 348 344
321 322 322 322 324 324 326 327 330 332 333 337 341 348 348 341 335 333 335 336 344 353 355 353 351 347 345 349 348 348 348 350 350 349 344 342 340 338 341 342 346 347 345 346 345 345 346 344 345
321 321 322 322 323 324 325 327 327 332 331 333 333 335 336 333 333 334 341 343 345 348 352 352 353 349 350 351 350 347 346 347 346 344 342 340 339 338 339 339 339 339 341 340 339 338 337 339 339
321 320 320 321 324 325 324 325 327 329 332 334 333 332 332 332 331 333 340 346 349 351 351 352 352 350 347 346 347 346 347 345 343 340 336 335 333 332 330 329 328 326 326 318 321 320 316 330 333
320 320 320 321 324 324 324 325 327 328 331 334 333 331 331 331 331 332 334 343 346 349 351 352 349 342 344 339 346 346 348 342 337 334 330 325 322 318 316 314 314 315 322 316 316 315 313 321 323
318 319 320 322 322 323 324 324 326 328 330 330 332 332 331 331 330 330 330 338 344 346 349 350 349 350 345 347 349 346 339 336 333 331 328 325 324 323 316 316 317 318 317 318 318 314 316 318 321
319 319 320 320 323 324 323 324 326 329 329 330 331 331 331 331 331 330 333 338 341 344 347 349 350 349 347 345 342 334 330 327 323 324 322 322 322 323 317 317 317 318 317 317 313 310 317 318 317
319 319 319 322 323 324 323 325 324 326 327 327 329 330 331 331 330 329 331 336 339 342 345 346 347 346 343 338 329 319 318 326 324 323 323 322 322 324 318 318 318 317 317 319 318 313 317 315 317
320 319 319 320 321 320 321 323 324 324 325 327 327 328 328 328 328 328 328 331 337 341 344 345 343 339 335 330 323 322 325 324 324 318 324 324 323 322 321 320 321 321 320 319 318 316 315 315 315
319 320 321 323 324 321 322 322 323 323 324 325 325 326 327 327 327 327 327 328 336 341 342 341 337 333 329 328 327 327 328 322 319 321 320 318 318 319 321 322 321 320 318 317 316 316 315 315 314
318 320 321 323 322 325 324 324 324 325 324 325 326 324 324 325 325 325 324 326 337 339 340 337 333 329 328 328 328 328 327 326 326 323 320 318 318 319 320 319 318 317 317 316 315 315 314 313 312
318 320 322 323 324 324 325 325 324 325 324 324 323 323 324 325 325 324 324 333 337 338 338 333 330 328 328 328 327 327 326 325 322 319 318 318 318 317 317 317 317 316 315 314 313 312 311 310 309
Wind_Speed
7 9 10 11 8 8 17 21 3 17 2 5 7 1 14 22 16 7 23 19 23 22 25 22 20 18 17 17 18 17 15 12 9 9 13 16 15 12 11 9 8 8 8 7 7 6 5 5 4
8 8 11 15 12 15 15 22 11 9 9 8 4 5 9 15 14 20 21 24 24 24 25 22 20 18 18 18 18 16 14 12 10 10 14 15 14 11 10 8 7 6 6 5 5 4 3 2 1
9 8 13 11 15 18 18 22 11 8 3 8 10 3 10 9 13 16 22 26 25 24 24 22 20 19 18 17 16 15 14 12 10 11 15 15 13 10 9 7 6 5 4 3 2 2 2 1 1
9 13 13 16 24 25 28 2 11 9 7 10 10 13 12 12 12 14 25 26 24 23 22 23 21 19 17 15 14 13 13 13 12 13 15 14 12 9 7 6 4 3 3 2 1 0 1 2 3
16 15 12 19 25 24 25 5 10 9 10 14 12 13 13 10 12 24 27 25 24 22 21 23 21 19 16 14 12 12 13 13 12 14 14 13 10 8 6 4 3 2 2 2 2 2 3 4 5
20 23 14 22 26 26 20 17 4 12 12 13 14 17 11 12 21 25 25 24 23 23 22 23 22 19 16 13 12 12 12 12 12 13 13 11 9 7 5 4 4 3 3 3 3 4 5 6 7
24 17 24 26 26 26 27 14 12 15 10 12 13 16 12 17 22 25 25 24 23 22 23 25 23 21 17 14 12 12 11 10 11 11 11 10 9 8 7 6 5 5 5 5 6 6 7 8 9
32 17 28 26 24 27 28 18 21 19 5 1 5 16 18 21 24 25 25 24 23 22 21 23 22 21 19 16 14 12 10 9 9 10 10 10 10 9 8 8 8 8 8 8 8 8 9 10 11
31 18 22 31 34 28 28 22 20 17 7 8 10 6 27 25 25 27 26 25 24 22 21 21 20 19 16 15 15 13 12 10 9 9 8 8 7 8 11 10 10 10 10 10 10 11 11 12 12
25 22 33 28 28 27 28 26 23 18 16 11 8 7 24 28 28 29 29 28 26 25 21 20 19 18 17 13 15 14 12 11 10 9 8 7 6 8 8 12 11 12 12 12 11 12 13 13 11
36 28 27 31 30 35 31 33 31 23 20 18 19 18 25 27 28 27 27 27 25 23 21 20 21 20 17 13 12 13 11 10 9 10 10 7 8 7 7 7 9 10 9 10 12 9 11 8 11
26 36 32 33 34 22 28 32 23 29 21 17 23 22 25 27 27 30 27 26 26 24 23 21 21 19 17 13 11 10 10 9 8 10 12 10 9 8 8 7 7 11 9 9 11 9 11 13 12
32 27 36 36 33 16 19 26 18 27 21 6 17 22 25 25 25 25 25 26 22 24 21 20 20 18 18 16 11 11 11 10 9 9 11 10 8 8 7 7 8 9 10 11 11 11 12 12 13
30 35 29 39 33 20 20 28 27 19 23 12 14 19 23 26 28 27 22 25 26 23 23 20 18 16 16 15 12 12 13 10 11 9 9 11 9 9 8 8 9 9 10 10 10 11 13 13 13
34 27 30 30 27 18 28 21 26 27 14 18 18 21 22 23 25 25 26 22 23 21 21 20 18 17 17 14 13 11 8 9 8 8 10 10 10 10 10 8 9 9 10 12 12 13 14 13 13
29 27 26 26 25 26 24 26 20 29 24 25 22 22 23 23 22 21 20 20 20 19 19 19 17 15 16 13 12 10 10 8 8 7 8 9 8 8 9 8 9 10 11 11 12 13 15 16 18
22 22 30 29 29 23 23 22 21 20 23 26 26 25 23 23 21 20 19 17 17 18 18 17 16 14 15 16 12 11 10 8 6 6 7 7 7 8 10 9 10 12 12 13 15 18 17 19 21
29 31 30 27 32 30 23 23 23 17 24 26 29 28 27 27 26 20 18 17 16 16 19 18 16 15 14 12 12 9 8 6 6 6 7 6 5 7 9 10 13 14 14 15 17 18 18 19 21
27 29 29 29 24 30 27 25 22 25 19 8 29 29 27 31 19 17 15 17 15 15 18 22 18 19 14 12 11 10 9 9 7 8 12 12 9 12 15 11 14 15 15 16 17 19 19 20 22
28 32 29 29 25 29 27 26 23 21 23 19 16 31 27 14 22 17 15 16 19 17 17 15 18 18 15 14 13 10 10 8 9 8 11 7 10 12 12 12 10 16 16 15 18 19 20 19 19
25 28 30 28 25 27 25 22 26 25 18 21 14 19 28 26 21 16 14 13 15 18 18 18 17 16 17 13 13 14 13 11 5 3 3 2 0 2 3 4 6 5 7 10 12 16 17 19 21
23 22 28 23 21 14 27 16 27 20 23 19 24 11 10 21 18 17 14 13 14 15 17 17 18 16 15 14 12 12 8 9 10 8 7 4 3 3 3 4 5 7 7 12 12 14 17 15 18
16 23 21 20 24 20 26 20 25 23 24 31 25 27 20 15 12 9 14 13 13 15 16 17 16 15 14 15 12 12 12 13 11 10 8 7 6 7 7 9 10 11 9 14 17 20 22 17 18
9 19 14 16 15 15 23 23 18 25 22 24 31 40 34 22 12 17 12 15 14 14 15 16 15 14 13 14 15 16 15 15 12 9 8 6 4 5 9 9 11 13 15 16 17 23 18 20 18
16 19 13 11 10 12 22 20 18 30 29 26 23 26 27 25 30 24 22 14 14 18 17 16 16 16 16 16 16 17 17 15 13 11 7 6 3 2 8 11 14 13 16 18 23 26 16 17 21
24 23 14 19 13 16 20 15 22 6 31 32 30 29 26 26 25 24 21 20 18 18 19 18 19 19 19 20 20 18 16 13 11 10 7 5 3 2 9 12 15 17 18 17 18 22 16 20 19
21 23 21 19 21 17 16 19 11 16 9 17 29 32 31 28 27 23 23 19 18 16 17 20 21 22 21 20 20 18 15 12 12 10 8 3 3 4 10 13 13 13 13 15 16 17 19 21 22
18 18 5 10 19 12 12 17 11 13 19 13 11 16 16 17 18 23 22 22 22 18 18 20 22 23 22 19 17 15 14 13 9 6 4 2 7 10 11 11 12 14 16 18 19 20 22 24 23
15 13 11 11 5 14 11 14 15 18 14 16 15 21 22 25 26 27 26 23 22 20 21 22 23 23 21 18 16 14 12 9 7 2 3 9 12 14 14 15 16 18 20 21 22 23 25 26 29
16 20 13 6 7 2 2 5 8 17 17 20 21 21 19 17 19 22 23 25 22 22 23 23 23 22 19 17 15 12 9 5 2 4 9 12 15 19 17 17 18 20 22 23 24 26 27 28 28
Wind_Direction
258 301 280 257 240 234 245 239 145 219 134 76 95 216 55 36 23 72 138 146 149 152 159 155 152 149 151 162 169 169 172 169 160 152 150 150 150 147 139 131 125 121 120 118 110 105 107 109 92
242 268 257 257 234 240 228 249 186 253 92 130 156 134 113 62 74 125 135 147 150 151 158 156 152 149 151 159 167 173 178 179 173 163 157 153 153 152 142 135 131 130 127 123 116 110 110 120 109
234 246 259 227 234 241 244 217 153 142 139 209 173 172 82 99 115 132 145 147 150 151 156 157 153 150 152 159 167 176 182 185 178 165 160 157 159 156 148 139 133 134 130 125 126 128 128 172 263
233 226 241 261 235 230 251 39 235 128 209 212 161 100 100 112 128 146 147 150 149 152 158 157 154 151 150 155 163 174 181 182 176 167 163 162 164 160 152 142 143 150 157 154 172 242 271 281 292
217 237 229 229 238 239 231 164 170 193 198 189 165 137 116 142 133 144 149 152 150 154 161 160 156 151 150 151 153 162 169 173 171 168 168 169 171 168 162 163 179 184 202 218 243 269 285 289 292
214 226 230 231 221 237 243 183 222 220 207 199 192 134 120 142 146 149 152 152 154 157 163 163 159 156 153 150 147 152 161 168 168 170 174 176 181 189 193 204 221 230 244 255 263 275 281 288 292
225 214 228 237 231 216 233 183 208 235 197 200 193 142 135 153 154 154 155 155 159 162 158 166 164 164 161 158 151 144 152 165 170 178 183 193 202 215 221 230 243 256 259 266 273 281 289 293 298
224 241 234 235 242 225 217 194 217 231 177 208 177 124 160 159 158 157 157 160 161 164 166 166 170 169 170 169 164 157 154 160 171 185 196 209 221 230 238 247 252 262 266 270 275 280 288 292 299
217 235 235 227 229 236 211 206 203 224 261 205 202 10 158 159 160 161 162 166 165 166 171 168 169 173 169 177 176 173 173 177 180 188 200 213 228 248 254 262 262 265 266 272 278 286 291 293 296
216 225 229 234 235 232 251 199 199 213 214 184 179 142 152 157 167 169 171 172 172 170 171 173 172 174 171 181 190 186 192 199 201 206 213 210 204 228 220 240 274 269 267 270 277 284 287 294 317
216 225 229 238 244 243 231 268 199 208 221 201 179 163 162 165 174 175 177 173 175 172 172 177 173 176 173 181 191 186 196 193 203 206 221 199 221 243 251 253 304 301 289 280 283 298 307 288 268
220 227 234 233 233 241 233 224 245 218 211 228 177 170 168 172 175 178 179 168 175 176 174 180 178 177 174 185 191 186 191 197 206 216 220 201 222 232 225 241 249 264 264 264 260 262 264 265 273
223 223 226 238 236 221 246 222 238 225 211 203 163 165 174 174 177 176 176 171 177 180 178 181 181 175 180 182 189 188 190 202 206 215 230 213 223 231 236 247 247 248 253 264 270 269 268 267 271
219 225 222 230 239 209 220 234 234 219 208 196 185 180 181 179 176 171 181 168 180 181 177 178 182 184 187 183 187 194 191 203 200 213 219 226 222 235 231 257 258 258 259 260 262 268 263 267 268
228 220 233 217 230 204 219 225 222 226 181 197 181 187 182 178 174 167 176 170 179 178 178 180 179 187 185 184 187 188 214 191 200 211 221 228 236 244 238 245 255 260 264 264 267 272 280 286 286
220 223 216 210 218 206 196 221 199 228 189 200 186 181 177 173 172 169 171 171 173 176 179 179 181 188 187 189 198 189 210 192 203 213 229 234 239 242 252 259 263 268 270 272 275 278 274 275 279
210 211 212 201 207 204 203 225 187 192 210 196 187 178 180 176 172 168 171 167 168 174 176 178 177 184 189 197 197 193 212 200 211 216 225 243 252 259 264 257 262 271 273 275 277 279 278 281 285
200 217 199 210 192 218 201 226 164 187 215 198 188 175 183 175 171 169 173 174 173 175 175 175 182 183 186 197 186 195 202 202 198 212 217 230 266 273 277 276 275 267 263 268 276 276 278 281 284
198 204 207 212 190 204 207 212 210 180 206 228 181 183 185 170 176 177 178 174 177 180 170 171 171 192 180 176 173 174 178 173 181 206 222 254 246 251 282 269 259 270 272 276 276 275 283 286 291
204 197 217 198 196 198 208 205 208 190 191 200 240 183 168 167 165 168 166 173 180 179 174 169 183 190 182 174 166 180 179 183 192 228 253 260 273 279 285 276 283 274 282 307 293 292 294 293 290
222 199 216 194 210 188 210 206 220 172 202 194 262 268 164 170 162 163 159 164 170 180 183 182 186 196 179 182 178 175 188 206 171 132 124 173 207 335 340 325 308 338 0 311 330 330 322 314 300
210 227 206 213 165 192 207 201 208 193 185 170 186 233 211 172 177 167 164 164 165 167 171 177 182 187 185 183 182 174 160 155 161 150 149 137 111 76 44 12 360 354 7 343 340 334 330 316 317
222 205 219 216 182 193 201 224 188 199 189 186 199 203 225 176 185 162 162 172 167 165 166 172 182 177 185 177 175 165 165 171 141 141 130 109 96 77 51 32 19 8 1 346 348 338 335 324 310
251 198 199 205 202 212 193 214 197 191 201 203 203 202 203 206 217 219 218 163 170 162 173 171 172 172 169 163 162 170 163 149 143 132 117 113 95 67 39 15 8 355 352 342 343 336 333 325 322
214 184 189 196 199 212 203 198 241 191 194 198 200 200 196 199 201 195 173 179 181 178 172 165 163 156 156 153 156 157 147 146 137 115 135 125 106 60 2 359 347 342 338 335 333 336 340 323 312
192 187 189 183 198 199 177 198 216 198 192 197 195 199 191 202 214 212 191 185 185 179 169 160 154 155 152 146 146 143 135 131 131 137 125 120 71 24 339 341 331 328 329 330 329 337 314 315 307
201 189 195 188 199 204 195 204 215 203 163 196 206 204 204 211 209 216 221 193 184 179 166 160 158 153 148 145 143 133 133 139 157 141 105 80 51 5 306 323 323 323 323 321 317 319 316 308 303
230 204 170 225 194 201 191 173 203 190 177 182 219 221 214 201 200 216 225 212 180 174 174 164 158 153 150 146 144 145 148 153 145 139 162 279 309 320 323 317 313 313 314 316 312 310 306 302 308
206 225 230 244 211 192 171 192 211 174 192 181 194 195 208 220 219 220 221 213 170 175 181 168 160 156 152 149 153 146 145 141 138 138 304 307 313 314 315 312 311 312 310 311 306 305 307 303 300
213 206 217 198 181 214 186 72 120 166 182 197 193 202 205 209 207 215 206 175 171 177 173 168 162 157 155 155 152 149 143 145 187 282 297 305 307 308 308 310 307 307 307 306 306 304 303 303 303